This is the latest recevied weather packets stored in our database for station/object KF4WSW-13. If no packets are shown the sender has not sent any weather packets the latest 10 day(s).
| Time | Temp. | Humidity | Pressure | Rain* | Wind** | Luminosity | Snow |
|---|---|---|---|---|---|---|---|
| 1777923446 | 26.67° C | 54% | 1012.8 hPa | 0 mm | - | 664 W/m² | - |
| 1777923143 | 26.11° C | 53% | 1013 hPa | 0 mm | - | 695 W/m² | - |
| 1777922841 | 26.67° C | 56% | 1012.9 hPa | 0 mm | - | 605 W/m² | - |
| 1777922539 | 26.67° C | 56% | 1013 hPa | 0 mm | - | 509 W/m² | - |
| 1777922238 | 26.11° C | 57% | 1013.1 hPa | 0 mm | - | 604 W/m² | - |
| 1777921934 | 26.11° C | 56% | 1012.9 hPa | 0 mm | - | 566 W/m² | - |
| 1777921629 | 26.67° C | 55% | 1013.2 hPa | 0 mm | - | 188 W/m² | - |
| 1777921326 | 26.67° C | 52% | 1013.5 hPa | 0 mm | - | 509 W/m² | - |
| 1777921023 | 27.22° C | 53% | 1013.4 hPa | 0 mm | - | 659 W/m² | - |
| 1777920719 | 26.67° C | 48% | 1013.5 hPa | 0 mm | - | 841 W/m² | - |
| 1777920415 | 26.67° C | 52% | 1013.4 hPa | 0 mm | - | 270 W/m² | - |
| 1777920110 | 26.67° C | 49% | 1013.3 hPa | 0 mm | - | 326 W/m² | - |
| 1777919808 | 27.22° C | 53% | 1013.8 hPa | 0 mm | - | 667 W/m² | - |
| 1777919505 | 27.78° C | 54% | 1013.7 hPa | 0 mm | - | 644 W/m² | - |
| 1777919203 | 27.22° C | 51% | 1013.8 hPa | 0 mm | - | 717 W/m² | - |
| 1777918900 | 26.67° C | 48% | 1014.1 hPa | 0 mm | - | 914 W/m² | - |
| 1777918597 | 26.67° C | 49% | 1014 hPa | 0 mm | - | 782 W/m² | - |
| 1777918295 | 26.67° C | 53% | 1014 hPa | 0 mm | - | 348 W/m² | - |
| 1777917994 | 26.67° C | 44% | 1014.2 hPa | 0 mm | - | 409 W/m² | - |
| 1777917692 | 27.22° C | 46% | 1014.2 hPa | 0 mm | - | 251 W/m² | - |
| 1777917389 | 26.67° C | 45% | 1014.5 hPa | 0 mm | - | 254 W/m² | - |
| 1777917085 | 28.33° C | 42% | 1014.3 hPa | 0 mm | - | 917 W/m² | - |
| 1777916784 | 26.67° C | 45% | 1014.5 hPa | 0 mm | - | 931 W/m² | - |
| 1777916480 | 26.11° C | 51% | 1014.5 hPa | 0 mm | - | 789 W/m² | - |
| 1777916177 | 26.67° C | 48% | 1014.4 hPa | 0 mm | - | 836 W/m² | - |
* Rain latest hour (hover to see other rain measurements)
** Current wind speed in m/s (hover to see current wind gust speed)